Time,TemperatureF,DewpointF,PressureIn,WindDirection,WindDirectionDegrees,WindSpeedMPH,WindSpeedGustMPH,Humidity,HourlyPrecipIn,Conditions,Clouds,dailyrainin,SoftwareType,DateUTC
2013-01-13 00:01:00,42.6,42.1,30.23,North,8,0.0,1.0,98,0.00,,,0.00,meteohub,2013-01-13 05:01:00,
2013-01-13 00:02:00,42.6,42.1,30.23,North,8,0.0,1.0,98,0.00,,,0.00,meteohub,2013-01-13 05:02:00,
2013-01-13 00:04:00,42.6,42.1,30.23,North,8,0.0,1.0,98,0.00,,,0.00,meteohub,2013-01-13 05:04:00,
2013-01-13 00:09:00,42.6,42.1,30.23,North,8,0.0,0.0,98,0.00,,,0.00,meteohub,2013-01-13 05:09:00,
2013-01-13 00:14:00,42.6,42.1,30.23,North,8,0.0,0.0,98,0.00,,,0.00,meteohub,2013-01-13 05:14:00,
2013-01-13 00:19:00,42.6,42.1,30.23,North,5,0.0,0.0,98,0.00,,,0.00,meteohub,2013-01-13 05:19:00,
2013-01-13 00:24:00,42.6,42.1,30.23,North,5,0.0,0.0,98,0.00,,,0.00,meteohub,2013-01-13 05:24:00,
2013-01-13 00:29:00,42.6,42.1,30.23,North,6,0.0,0.0,98,0.00,,,0.00,meteohub,2013-01-13 05:29:00,
2013-01-13 00:34:00,42.6,42.1,30.23,North,6,0.0,0.0,98,0.00,,,0.00,meteohub,2013-01-13 05:34:00,
2013-01-13 00:39:00,42.4,41.9,30.22,NE,36,0.0,0.0,98,0.00,,,0.00,meteohub,2013-01-13 05:39:00,
2013-01-13 00:44:00,42.4,41.9,30.22,ENE,61,0.0,1.0,98,0.00,,,0.00,meteohub,2013-01-13 05:44:00,
2013-01-13 00:49:00,42.4,41.9,30.22,East,96,0.0,1.0,98,0.00,,,0.00,meteohub,2013-01-13 05:49:00,
2013-01-13 00:54:00,42.4,41.9,30.22,East,96,0.0,1.0,98,0.00,,,0.00,meteohub,2013-01-13 05:54:00,
2013-01-13 00:59:00,42.4,41.9,30.22,East,96,0.0,1.0,98,0.00,,,0.00,meteohub,2013-01-13 05:59:00,
2013-01-13 01:04:00,42.4,41.9,30.22,East,96,0.0,1.0,98,0.00,,,0.00,meteohub,2013-01-13 06:04:00,
2013-01-13 01:09:00,42.3,41.7,30.22,East,96,0.0,0.0,98,0.00,,,0.00,meteohub,2013-01-13 06:09:00,
2013-01-13 01:14:00,42.3,41.7,30.22,East,86,1.0,0.0,98,0.00,,,0.00,meteohub,2013-01-13 06:14:00,
2013-01-13 01:20:00,42.3,41.7,30.21,ESE,105,0.0,2.0,98,0.00,,,0.00,meteohub,2013-01-13 06:20:00,
2013-01-13 01:25:00,42.3,41.7,30.20,ESE,105,1.0,2.0,98,0.00,,,0.01,meteohub,2013-01-13 06:25:00,
2013-01-13 01:30:00,42.3,41.7,30.21,SE,129,1.0,2.0,98,0.01,,,0.01,meteohub,2013-01-13 06:30:00,
2013-01-13 01:35:00,42.3,41.7,30.21,East,90,0.0,3.0,98,0.01,,,0.01,meteohub,2013-01-13 06:35:00,
2013-01-13 01:40:00,42.1,41.5,30.20,ESE,104,2.0,3.0,98,0.01,,,0.01,meteohub,2013-01-13 06:40:00,
2013-01-13 01:45:00,42.1,41.5,30.20,SE,129,0.0,3.0,98,0.01,,,0.01,meteohub,2013-01-13 06:45:00,
2013-01-13 01:50:00,42.1,41.5,30.21,East,88,0.0,3.0,98,0.01,,,0.01,meteohub,2013-01-13 06:50:00,
2013-01-13 01:55:00,42.1,41.5,30.22,ESE,121,0.0,3.0,98,0.01,,,0.01,meteohub,2013-01-13 06:55:00,
2013-01-13 02:00:00,42.1,41.5,30.22,ESE,121,0.0,2.0,98,0.01,,,0.01,meteohub,2013-01-13 07:00:00,
2013-01-13 02:05:00,41.9,41.4,30.22,ESE,123,0.0,2.0,98,0.01,,,0.01,meteohub,2013-01-13 07:05:00,
2013-01-13 02:10:00,41.9,41.4,30.22,ESE,122,0.0,2.0,98,0.01,,,0.01,meteohub,2013-01-13 07:10:00,
2013-01-13 02:15:00,41.9,41.4,30.22,SE,127,0.0,2.0,98,0.01,,,0.01,meteohub,2013-01-13 07:15:00,
2013-01-13 02:20:00,41.9,41.4,30.22,SE,127,0.0,1.0,98,0.01,,,0.01,meteohub,2013-01-13 07:20:00,
2013-01-13 02:25:00,41.9,41.4,30.22,ESE,114,0.0,1.0,98,0.00,,,0.01,meteohub,2013-01-13 07:25:00,
2013-01-13 02:30:00,41.7,41.2,30.23,ESE,117,0.0,2.0,98,0.00,,,0.01,meteohub,2013-01-13 07:30:00,
2013-01-13 02:35:00,41.7,41.2,30.23,SSE,159,0.0,2.0,98,0.00,,,0.01,meteohub,2013-01-13 07:35:00,
2013-01-13 02:41:00,41.7,41.2,30.23,SSE,159,0.0,2.0,98,0.00,,,0.01,meteohub,2013-01-13 07:41:00,
2013-01-13 02:46:00,41.7,41.2,30.22,SSE,159,0.0,1.0,98,0.00,,,0.01,meteohub,2013-01-13 07:46:00,
2013-01-13 02:51:00,41.9,41.4,30.22,SSE,150,0.0,0.0,98,0.00,,,0.01,meteohub,2013-01-13 07:51:00,
2013-01-13 02:56:00,41.7,41.2,30.23,SSE,150,0.0,0.0,98,0.00,,,0.01,meteohub,2013-01-13 07:56:00,
2013-01-13 03:01:00,41.9,41.4,30.23,SW,228,0.0,0.0,98,0.00,,,0.01,meteohub,2013-01-13 08:01:00,
2013-01-13 03:06:00,41.9,41.4,30.23,SW,231,0.0,1.0,98,0.00,,,0.01,meteohub,2013-01-13 08:06:00,
2013-01-13 03:11:00,41.9,41.4,30.23,SW,231,0.0,1.0,98,0.00,,,0.01,meteohub,2013-01-13 08:11:00,
2013-01-13 03:16:00,41.7,41.2,30.23,SW,231,0.0,1.0,98,0.00,,,0.01,meteohub,2013-01-13 08:16:00,
2013-01-13 03:21:00,41.9,41.4,30.22,SW,231,0.0,0.0,98,0.00,,,0.01,meteohub,2013-01-13 08:21:00,
2013-01-13 03:26:00,41.9,41.4,30.23,SW,231,0.0,0.0,98,0.00,,,0.01,meteohub,2013-01-13 08:26:00,
2013-01-13 03:31:00,41.9,41.4,30.22,SW,231,0.0,0.0,98,0.00,,,0.01,meteohub,2013-01-13 08:31:00,
2013-01-13 03:36:00,41.7,41.2,30.22,SW,230,0.0,0.0,98,0.00,,,0.01,meteohub,2013-01-13 08:36:00,
2013-01-13 03:41:00,41.9,41.4,30.22,SW,231,0.0,0.0,98,0.00,,,0.01,meteohub,2013-01-13 08:41:00,
2013-01-13 03:46:00,41.9,41.4,30.22,SSE,148,0.0,0.0,98,0.00,,,0.01,meteohub,2013-01-13 08:46:00,
2013-01-13 03:51:00,41.9,41.4,30.22,SSE,148,0.0,0.0,98,0.00,,,0.01,meteohub,2013-01-13 08:51:00,
2013-01-13 03:56:00,41.9,41.4,30.21,ESE,122,1.0,0.0,98,0.00,,,0.01,meteohub,2013-01-13 08:56:00,
2013-01-13 04:01:00,41.9,41.4,30.20,ESE,121,1.0,2.0,98,0.00,,,0.01,meteohub,2013-01-13 09:01:00,
2013-01-13 04:07:00,41.9,41.4,30.20,East,94,0.0,2.0,98,0.00,,,0.01,meteohub,2013-01-13 09:07:00,
2013-01-13 04:12:00,41.9,41.4,30.20,East,100,0.0,2.0,98,0.00,,,0.01,meteohub,2013-01-13 09:12:00,
2013-01-13 04:17:00,42.1,41.5,30.20,ESE,112,0.0,2.0,98,0.00,,,0.01,meteohub,2013-01-13 09:17:00,
2013-01-13 04:22:00,42.1,41.5,30.20,ESE,122,0.0,1.0,98,0.00,,,0.01,meteohub,2013-01-13 09:22:00,
2013-01-13 04:27:00,42.1,41.5,30.19,East,100,0.0,1.0,98,0.00,,,0.01,meteohub,2013-01-13 09:27:00,
2013-01-13 04:32:00,42.1,41.5,30.19,ESE,113,1.0,1.0,98,0.00,,,0.01,meteohub,2013-01-13 09:32:00,
2013-01-13 04:37:00,42.1,41.5,30.19,ESE,110,0.0,2.0,98,0.00,,,0.01,meteohub,2013-01-13 09:37:00,
2013-01-13 04:42:00,42.1,41.5,30.19,East,86,0.0,2.0,98,0.00,,,0.01,meteohub,2013-01-13 09:42:00,
2013-01-13 04:47:00,42.1,41.5,30.19,East,88,0.0,2.0,98,0.00,,,0.01,meteohub,2013-01-13 09:47:00,
2013-01-13 04:52:00,42.1,41.5,30.19,East,86,0.0,1.0,98,0.00,,,0.01,meteohub,2013-01-13 09:52:00,
2013-01-13 04:57:00,42.1,41.5,30.19,East,86,0.0,1.0,98,0.00,,,0.01,meteohub,2013-01-13 09:57:00,
2013-01-13 05:02:00,42.1,41.5,30.19,East,88,0.0,0.0,98,0.00,,,0.01,meteohub,2013-01-13 10:02:00,
2013-01-13 05:07:00,42.1,41.5,30.18,ESE,106,0.0,1.0,98,0.00,,,0.01,meteohub,2013-01-13 10:07:00,
2013-01-13 05:12:00,42.1,41.5,30.18,East,84,2.0,2.0,98,0.00,,,0.01,meteohub,2013-01-13 10:12:00,
2013-01-13 05:17:00,42.1,41.5,30.18,ESE,114,0.0,2.0,98,0.00,,,0.01,meteohub,2013-01-13 10:17:00,
2013-01-13 05:22:00,42.1,41.5,30.18,ESE,111,0.0,2.0,98,0.00,,,0.01,meteohub,2013-01-13 10:22:00,
2013-01-13 05:27:00,42.1,41.5,30.19,SE,129,0.0,2.0,98,0.00,,,0.01,meteohub,2013-01-13 10:27:00,
2013-01-13 05:32:00,42.3,41.7,30.19,SE,127,0.0,2.0,98,0.00,,,0.01,meteohub,2013-01-13 10:32:00,
2013-01-13 05:37:00,42.3,41.7,30.19,ESE,123,0.0,1.0,98,0.00,,,0.01,meteohub,2013-01-13 10:37:00,
2013-01-13 05:42:00,42.3,41.7,30.19,ESE,121,0.0,0.0,98,0.00,,,0.01,meteohub,2013-01-13 10:42:00,
2013-01-13 05:47:00,42.3,41.7,30.19,SE,127,1.0,3.0,98,0.00,,,0.01,meteohub,2013-01-13 10:47:00,
2013-01-13 05:52:00,42.3,42.1,30.19,ESE,121,1.0,3.0,99,0.00,,,0.01,meteohub,2013-01-13 10:52:00,
2013-01-13 05:57:00,42.3,42.1,30.18,ESE,108,2.0,3.0,99,0.00,,,0.01,meteohub,2013-01-13 10:57:00,
2013-01-13 06:02:00,42.3,42.1,30.18,SE,138,1.0,4.0,99,0.00,,,0.01,meteohub,2013-01-13 11:02:00,
2013-01-13 06:07:00,42.3,42.1,30.18,ESE,122,1.0,4.0,99,0.00,,,0.01,meteohub,2013-01-13 11:07:00,
2013-01-13 06:12:00,42.3,42.1,30.18,SE,134,1.0,4.0,99,0.00,,,0.01,meteohub,2013-01-13 11:12:00,
2013-01-13 06:17:00,42.3,42.1,30.18,SE,138,0.0,4.0,99,0.00,,,0.01,meteohub,2013-01-13 11:17:00,
2013-01-13 06:22:00,42.4,42.3,30.18,SE,141,1.0,4.0,99,0.00,,,0.01,meteohub,2013-01-13 11:22:00,
2013-01-13 06:27:00,42.4,42.3,30.18,SE,131,1.0,3.0,99,0.00,,,0.01,meteohub,2013-01-13 11:27:00,
2013-01-13 06:32:00,42.4,42.3,30.18,SE,133,3.0,3.0,99,0.00,,,0.01,meteohub,2013-01-13 11:32:00,
2013-01-13 06:37:00,42.4,42.3,30.19,SSE,155,2.0,5.0,99,0.00,,,0.01,meteohub,2013-01-13 11:37:00,
2013-01-13 06:42:00,42.4,42.3,30.19,ESE,111,1.0,5.0,99,0.00,,,0.01,meteohub,2013-01-13 11:42:00,
2013-01-13 06:47:00,42.4,42.3,30.19,SSE,158,0.0,4.0,99,0.00,,,0.01,meteohub,2013-01-13 11:47:00,
2013-01-13 06:52:00,42.4,42.3,30.19,SE,126,0.0,3.0,99,0.00,,,0.01,meteohub,2013-01-13 11:52:00,
2013-01-13 06:57:00,42.4,42.3,30.19,SE,127,0.0,2.0,99,0.00,,,0.01,meteohub,2013-01-13 11:57:00,
2013-01-13 07:02:00,42.4,42.3,30.19,SE,125,1.0,2.0,99,0.00,,,0.01,meteohub,2013-01-13 12:02:00,
2013-01-13 07:07:00,42.4,42.3,30.19,SE,131,2.0,3.0,99,0.00,,,0.01,meteohub,2013-01-13 12:07:00,
2013-01-13 07:12:00,42.6,42.4,30.19,ESE,119,1.0,3.0,99,0.00,,,0.01,meteohub,2013-01-13 12:12:00,
2013-01-13 07:17:00,42.6,42.4,30.19,SE,142,0.0,3.0,99,0.00,,,0.01,meteohub,2013-01-13 12:17:00,
2013-01-13 07:22:00,42.6,42.4,30.20,SE,132,1.0,2.0,99,0.00,,,0.01,meteohub,2013-01-13 12:22:00,
2013-01-13 07:27:00,42.6,42.4,30.19,SSE,152,0.0,2.0,99,0.00,,,0.01,meteohub,2013-01-13 12:27:00,
2013-01-13 07:32:00,42.6,42.4,30.20,ESE,122,0.0,2.0,99,0.00,,,0.01,meteohub,2013-01-13 12:32:00,
2013-01-13 07:37:00,42.6,42.4,30.19,ESE,120,1.0,2.0,99,0.00,,,0.01,meteohub,2013-01-13 12:37:00,
2013-01-13 07:42:00,42.6,42.4,30.19,SE,134,0.0,2.0,99,0.00,,,0.01,meteohub,2013-01-13 12:42:00,
2013-01-13 07:47:00,42.8,42.6,30.19,ESE,117,0.0,2.0,99,0.00,,,0.01,meteohub,2013-01-13 12:47:00,
2013-01-13 07:52:00,42.8,42.6,30.19,ESE,117,0.0,2.0,99,0.00,,,0.01,meteohub,2013-01-13 12:52:00,
2013-01-13 07:57:00,42.8,42.6,30.20,SE,145,0.0,2.0,99,0.00,,,0.01,meteohub,2013-01-13 12:57:00,
2013-01-13 08:02:00,42.8,42.6,30.20,ESE,121,1.0,1.0,99,0.00,,,0.01,meteohub,2013-01-13 13:02:00,
2013-01-13 08:07:00,43.0,42.8,30.19,ESE,110,0.0,2.0,99,0.00,,,0.01,meteohub,2013-01-13 13:07:00,
2013-01-13 08:12:00,43.0,42.8,30.20,SE,124,0.0,2.0,99,0.00,,,0.01,meteohub,2013-01-13 13:12:00,
2013-01-13 08:17:00,43.0,42.8,30.20,ESE,117,0.0,4.0,99,0.00,,,0.01,meteohub,2013-01-13 13:17:00,
2013-01-13 08:22:00,43.0,42.8,30.20,SSE,168,0.0,4.0,99,0.00,,,0.01,meteohub,2013-01-13 13:22:00,
2013-01-13 08:27:00,43.0,42.8,30.21,SE,133,0.0,2.0,99,0.00,,,0.01,meteohub,2013-01-13 13:27:00,
2013-01-13 08:32:00,43.2,43.0,30.21,ESE,120,1.0,0.0,99,0.00,,,0.01,meteohub,2013-01-13 13:32:00,
2013-01-13 08:37:00,43.2,43.0,30.21,East,88,0.0,2.0,99,0.00,,,0.01,meteohub,2013-01-13 13:37:00,
2013-01-13 08:42:00,43.2,43.0,30.21,SE,125,0.0,2.0,99,0.00,,,0.01,meteohub,2013-01-13 13:42:00,
2013-01-13 08:47:00,43.2,43.0,30.21,SE,127,0.0,2.0,99,0.00,,,0.01,meteohub,2013-01-13 13:47:00,
2013-01-13 08:52:00,43.2,43.0,30.21,SE,124,0.0,0.0,99,0.00,,,0.01,meteohub,2013-01-13 13:52:00,
2013-01-13 08:57:00,43.3,43.2,30.21,ESE,117,1.0,0.0,99,0.00,,,0.01,meteohub,2013-01-13 13:57:00,
2013-01-13 09:02:00,43.3,43.2,30.21,ESE,117,1.0,3.0,99,0.00,,,0.01,meteohub,2013-01-13 14:02:00,
2013-01-13 09:07:00,43.3,43.2,30.21,South,172,1.0,3.0,99,0.00,,,0.01,meteohub,2013-01-13 14:07:00,
2013-01-13 09:12:00,43.3,43.2,30.21,ESE,118,2.0,3.0,99,0.00,,,0.01,meteohub,2013-01-13 14:12:00,
2013-01-13 09:17:00,43.5,43.3,30.21,South,177,1.0,3.0,99,0.00,,,0.01,meteohub,2013-01-13 14:17:00,
2013-01-13 09:22:00,43.5,43.3,30.21,SSE,159,1.0,2.0,99,0.00,,,0.01,meteohub,2013-01-13 14:22:00,
2013-01-13 09:27:00,43.5,43.3,30.21,SE,143,1.0,3.0,99,0.00,,,0.01,meteohub,2013-01-13 14:27:00,
2013-01-13 09:32:00,43.5,43.3,30.22,SE,129,1.0,3.0,99,0.00,,,0.01,meteohub,2013-01-13 14:32:00,
2013-01-13 09:37:00,43.5,43.3,30.21,SE,129,0.0,3.0,99,0.00,,,0.01,meteohub,2013-01-13 14:37:00,
2013-01-13 09:42:00,43.5,43.3,30.21,SE,141,1.0,3.0,99,0.00,,,0.01,meteohub,2013-01-13 14:42:00,
2013-01-13 09:47:00,43.5,43.3,30.22,SE,125,1.0,3.0,99,0.00,,,0.01,meteohub,2013-01-13 14:47:00,
2013-01-13 09:52:00,43.7,43.5,30.22,ESE,120,1.0,2.0,99,0.00,,,0.01,meteohub,2013-01-13 14:52:00,
2013-01-13 09:57:00,43.9,43.7,30.22,ESE,106,0.0,3.0,99,0.00,,,0.01,meteohub,2013-01-13 14:57:00,
2013-01-13 10:02:00,44.1,43.9,30.22,ESE,106,0.0,3.0,99,0.00,,,0.01,meteohub,2013-01-13 15:02:00,
2013-01-13 10:07:00,44.1,43.9,30.22,SSE,151,0.0,2.0,99,0.00,,,0.01,meteohub,2013-01-13 15:07:00,
2013-01-13 10:12:00,44.1,43.9,30.22,SSE,151,0.0,2.0,99,0.00,,,0.01,meteohub,2013-01-13 15:12:00,
2013-01-13 10:17:00,44.1,43.9,30.22,East,84,2.0,2.0,99,0.00,,,0.01,meteohub,2013-01-13 15:17:00,
2013-01-13 10:22:00,44.2,44.1,30.22,SSE,163,0.0,3.0,99,0.00,,,0.01,meteohub,2013-01-13 15:22:00,
2013-01-13 10:27:00,44.2,44.1,30.22,SE,129,3.0,3.0,99,0.00,,,0.01,meteohub,2013-01-13 15:27:00,
2013-01-13 10:32:00,44.2,44.1,30.22,SSE,153,1.0,3.0,99,0.00,,,0.01,meteohub,2013-01-13 15:32:00,
2013-01-13 10:37:00,44.2,44.1,30.22,ESE,106,4.0,4.0,99,0.00,,,0.01,meteohub,2013-01-13 15:37:00,
2013-01-13 10:42:00,44.2,44.1,30.22,SE,134,1.0,4.0,99,0.00,,,0.01,meteohub,2013-01-13 15:42:00,
2013-01-13 10:48:00,44.2,44.1,30.22,ESE,120,3.0,4.0,99,0.00,,,0.01,meteohub,2013-01-13 15:48:00,
2013-01-13 10:53:00,44.4,44.2,30.21,ESE,111,1.0,5.0,99,0.00,,,0.01,meteohub,2013-01-13 15:53:00,
2013-01-13 10:58:00,44.4,44.2,30.21,SSE,151,1.0,5.0,99,0.00,,,0.01,meteohub,2013-01-13 15:58:00,
2013-01-13 11:03:00,44.4,44.2,30.21,ESE,117,2.0,5.0,99,0.00,,,0.01,meteohub,2013-01-13 16:03:00,
2013-01-13 11:08:00,44.4,44.2,30.21,SE,136,0.0,4.0,99,0.00,,,0.01,meteohub,2013-01-13 16:08:00,
2013-01-13 11:13:00,44.8,44.6,30.22,SE,143,0.0,4.0,99,0.00,,,0.01,meteohub,2013-01-13 16:13:00,
2013-01-13 11:18:00,44.8,44.6,30.21,SSE,149,1.0,4.0,99,0.00,,,0.01,meteohub,2013-01-13 16:18:00,
2013-01-13 11:23:00,44.8,44.6,30.21,SE,134,2.0,3.0,99,0.00,,,0.01,meteohub,2013-01-13 16:23:00,
2013-01-13 11:28:00,44.8,44.6,30.20,SE,145,2.0,5.0,99,0.00,,,0.01,meteohub,2013-01-13 16:28:00,
2013-01-13 11:33:00,44.8,44.6,30.19,ESE,103,2.0,5.0,99,0.00,,,0.01,meteohub,2013-01-13 16:33:00,
2013-01-13 11:38:00,45.0,44.8,30.19,East,101,2.0,5.0,99,0.00,,,0.01,meteohub,2013-01-13 16:38:00,
2013-01-13 11:43:00,45.0,44.8,30.19,South,188,2.0,4.0,99,0.00,,,0.01,meteohub,2013-01-13 16:43:00,
2013-01-13 11:48:00,45.0,44.8,30.19,SSE,153,1.0,4.0,99,0.00,,,0.01,meteohub,2013-01-13 16:48:00,
2013-01-13 11:53:00,45.0,44.8,30.19,ESE,121,2.0,5.0,99,0.00,,,0.01,meteohub,2013-01-13 16:53:00,
2013-01-13 11:58:00,45.1,45.0,30.19,SE,138,1.0,5.0,99,0.00,,,0.01,meteohub,2013-01-13 16:58:00,
2013-01-13 12:03:00,45.1,45.0,30.17,SE,124,1.0,4.0,99,0.00,,,0.01,meteohub,2013-01-13 17:03:00,
2013-01-13 12:09:00,45.1,45.0,30.17,SE,127,1.0,5.0,99,0.00,,,0.01,meteohub,2013-01-13 17:09:00,
2013-01-13 12:14:00,45.3,45.1,30.17,SE,138,3.0,5.0,99,0.00,,,0.01,meteohub,2013-01-13 17:14:00,
2013-01-13 12:19:00,45.3,45.1,30.18,SE,136,1.0,5.0,99,0.00,,,0.01,meteohub,2013-01-13 17:19:00,
2013-01-13 12:24:00,45.3,45.1,30.18,SSE,166,1.0,5.0,99,0.00,,,0.01,meteohub,2013-01-13 17:24:00,
2013-01-13 12:29:00,45.5,45.3,30.17,South,174,0.0,4.0,99,0.00,,,0.01,meteohub,2013-01-13 17:29:00,
2013-01-13 12:34:00,45.7,45.5,30.17,SE,136,1.0,3.0,99,0.00,,,0.01,meteohub,2013-01-13 17:34:00,
2013-01-13 12:39:00,45.7,45.5,30.17,SE,132,0.0,3.0,99,0.00,,,0.01,meteohub,2013-01-13 17:39:00,
2013-01-13 12:44:00,45.9,45.7,30.17,SSE,167,1.0,2.0,99,0.00,,,0.01,meteohub,2013-01-13 17:44:00,
2013-01-13 12:49:00,45.9,45.7,30.16,South,169,1.0,3.0,99,0.00,,,0.01,meteohub,2013-01-13 17:49:00,
2013-01-13 12:54:00,45.9,45.7,30.16,ESE,117,2.0,3.0,99,0.00,,,0.01,meteohub,2013-01-13 17:54:00,
2013-01-13 12:59:00,45.9,45.7,30.16,SE,146,0.0,3.0,99,0.00,,,0.01,meteohub,2013-01-13 17:59:00,
2013-01-13 13:04:00,46.0,45.9,30.16,SSE,162,1.0,3.0,99,0.00,,,0.01,meteohub,2013-01-13 18:04:00,
2013-01-13 13:09:00,46.0,45.9,30.15,South,184,0.0,3.0,99,0.00,,,0.01,meteohub,2013-01-13 18:09:00,
2013-01-13 13:14:00,46.2,46.0,30.15,ESE,112,0.0,3.0,99,0.00,,,0.01,meteohub,2013-01-13 18:14:00,
2013-01-13 13:19:00,46.2,46.0,30.14,ESE,115,2.0,3.0,99,0.00,,,0.01,meteohub,2013-01-13 18:19:00,
2013-01-13 13:25:00,46.0,45.9,30.14,SE,134,2.0,6.0,99,0.00,,,0.01,meteohub,2013-01-13 18:25:00,
2013-01-13 13:30:00,46.0,45.9,30.14,ESE,121,2.0,6.0,99,0.00,,,0.01,meteohub,2013-01-13 18:30:00,
2013-01-13 13:35:00,46.2,46.0,30.14,ESE,115,1.0,6.0,99,0.00,,,0.01,meteohub,2013-01-13 18:35:00,
2013-01-13 13:40:00,46.2,46.0,30.14,SSE,148,0.0,5.0,99,0.00,,,0.01,meteohub,2013-01-13 18:40:00,
2013-01-13 13:45:00,46.6,46.4,30.14,ESE,123,0.0,4.0,99,0.00,,,0.01,meteohub,2013-01-13 18:45:00,
2013-01-13 13:50:00,46.6,46.4,30.14,SE,138,1.0,4.0,99,0.00,,,0.01,meteohub,2013-01-13 18:50:00,
2013-01-13 13:55:00,46.6,46.4,30.14,SSE,167,1.0,4.0,99,0.00,,,0.01,meteohub,2013-01-13 18:55:00,
2013-01-13 14:00:00,46.6,46.4,30.15,SE,138,0.0,4.0,99,0.00,,,0.01,meteohub,2013-01-13 19:00:00,
2013-01-13 14:05:00,46.6,46.4,30.15,ESE,122,1.0,3.0,99,0.00,,,0.01,meteohub,2013-01-13 19:05:00,
2013-01-13 14:10:00,46.8,46.6,30.15,SSE,153,0.0,3.0,99,0.00,,,0.01,meteohub,2013-01-13 19:10:00,
2013-01-13 14:15:00,46.6,46.4,30.15,SE,134,0.0,3.0,99,0.00,,,0.01,meteohub,2013-01-13 19:15:00,
2013-01-13 14:20:00,46.8,46.6,30.15,SSE,166,0.0,4.0,99,0.00,,,0.01,meteohub,2013-01-13 19:20:00,
2013-01-13 14:26:00,46.8,46.6,30.14,SSE,148,2.0,4.0,99,0.00,,,0.01,meteohub,2013-01-13 19:26:00,
2013-01-13 14:31:00,46.8,46.6,30.15,SSE,165,0.0,3.0,99,0.00,,,0.01,meteohub,2013-01-13 19:31:00,
2013-01-13 14:36:00,46.8,46.6,30.15,SSE,165,2.0,3.0,99,0.00,,,0.01,meteohub,2013-01-13 19:36:00,
2013-01-13 14:41:00,46.8,46.6,30.14,SE,134,2.0,4.0,99,0.00,,,0.01,meteohub,2013-01-13 19:41:00,
2013-01-13 14:46:00,46.8,46.6,30.14,SE,141,0.0,4.0,99,0.00,,,0.01,meteohub,2013-01-13 19:46:00,
2013-01-13 14:51:00,46.8,46.6,30.14,SE,134,1.0,5.0,99,0.00,,,0.01,meteohub,2013-01-13 19:51:00,
2013-01-13 14:56:00,46.8,46.6,30.14,SSE,166,2.0,5.0,99,0.00,,,0.01,meteohub,2013-01-13 19:56:00,
2013-01-13 15:01:00,46.9,46.8,30.14,SSE,150,0.0,5.0,99,0.00,,,0.01,meteohub,2013-01-13 20:01:00,
2013-01-13 15:06:00,46.9,46.8,30.14,SSE,158,0.0,5.0,99,0.00,,,0.01,meteohub,2013-01-13 20:06:00,
2013-01-13 15:11:00,46.9,46.8,30.14,SW,236,3.0,4.0,99,0.00,,,0.01,meteohub,2013-01-13 20:11:00,
2013-01-13 15:16:00,46.9,46.8,30.14,SSE,153,1.0,6.0,99,0.00,,,0.01,meteohub,2013-01-13 20:16:00,
2013-01-13 15:21:00,46.9,46.8,30.14,South,176,2.0,6.0,99,0.00,,,0.01,meteohub,2013-01-13 20:21:00,
2013-01-13 15:26:00,46.9,46.8,30.14,SE,134,2.0,6.0,99,0.00,,,0.01,meteohub,2013-01-13 20:26:00,
2013-01-13 15:31:00,46.9,46.8,30.14,SSE,166,3.0,4.0,99,0.00,,,0.01,meteohub,2013-01-13 20:31:00,
2013-01-13 15:36:00,46.9,46.8,30.14,SSE,158,3.0,5.0,99,0.00,,,0.01,meteohub,2013-01-13 20:36:00,
2013-01-13 15:42:00,46.9,46.8,30.13,ESE,118,2.0,5.0,99,0.00,,,0.01,meteohub,2013-01-13 20:42:00,
2013-01-13 15:47:00,46.9,46.8,30.14,SE,142,2.0,5.0,99,0.00,,,0.01,meteohub,2013-01-13 20:47:00,
2013-01-13 15:52:00,46.9,46.8,30.14,SSW,203,1.0,5.0,99,0.00,,,0.01,meteohub,2013-01-13 20:52:00,
2013-01-13 15:57:00,46.9,46.8,30.12,East,96,0.0,5.0,99,0.00,,,0.01,meteohub,2013-01-13 20:57:00,
2013-01-13 16:02:00,46.9,46.8,30.13,SE,126,0.0,3.0,99,0.00,,,0.01,meteohub,2013-01-13 21:02:00,
2013-01-13 16:07:00,46.9,46.8,30.13,South,184,2.0,2.0,99,0.00,,,0.01,meteohub,2013-01-13 21:07:00,
2013-01-13 16:12:00,46.9,46.8,30.13,SSE,151,0.0,5.0,99,0.00,,,0.01,meteohub,2013-01-13 21:12:00,
2013-01-13 16:17:00,46.9,46.8,30.14,South,191,0.0,5.0,99,0.00,,,0.01,meteohub,2013-01-13 21:17:00,
2013-01-13 16:22:00,46.9,46.8,30.14,South,173,1.0,5.0,99,0.00,,,0.01,meteohub,2013-01-13 21:22:00,
2013-01-13 16:27:00,46.9,46.8,30.13,ESE,112,2.0,4.0,99,0.00,,,0.01,meteohub,2013-01-13 21:27:00,
2013-01-13 16:32:00,46.9,46.8,30.13,SSE,150,0.0,4.0,99,0.00,,,0.01,meteohub,2013-01-13 21:32:00,
2013-01-13 16:37:00,46.9,46.8,30.14,SSW,204,1.0,4.0,99,0.00,,,0.01,meteohub,2013-01-13 21:37:00,
2013-01-13 16:42:00,46.9,46.8,30.15,SW,215,0.0,3.0,99,0.00,,,0.01,meteohub,2013-01-13 21:42:00,
2013-01-13 16:47:00,46.9,46.8,30.13,SE,132,1.0,3.0,99,0.00,,,0.01,meteohub,2013-01-13 21:47:00,
2013-01-13 16:52:00,46.9,46.8,30.13,SE,136,0.0,3.0,99,0.00,,,0.01,meteohub,2013-01-13 21:52:00,
2013-01-13 16:57:00,46.9,46.8,30.13,SW,221,1.0,3.0,99,0.00,,,0.01,meteohub,2013-01-13 21:57:00,
2013-01-13 17:02:00,46.9,46.8,30.15,WSW,250,0.0,3.0,99,0.00,,,0.01,meteohub,2013-01-13 22:02:00,
2013-01-13 17:07:00,46.9,46.8,30.12,ESE,117,0.0,4.0,99,0.00,,,0.01,meteohub,2013-01-13 22:07:00,
2013-01-13 17:12:00,46.9,46.8,30.13,SE,125,1.0,4.0,99,0.00,,,0.01,meteohub,2013-01-13 22:12:00,
2013-01-13 17:17:00,46.9,46.8,30.13,SSE,153,0.0,4.0,99,0.00,,,0.01,meteohub,2013-01-13 22:17:00,
2013-01-13 17:22:00,46.9,46.8,30.13,SSE,166,1.0,2.0,99,0.00,,,0.01,meteohub,2013-01-13 22:22:00,
2013-01-13 17:27:00,46.9,46.8,30.13,SSE,154,0.0,2.0,99,0.00,,,0.01,meteohub,2013-01-13 22:27:00,
2013-01-13 17:32:00,46.9,46.8,30.12,SE,142,1.0,4.0,99,0.00,,,0.01,meteohub,2013-01-13 22:32:00,
2013-01-13 17:37:00,47.1,46.9,30.12,SE,145,1.0,4.0,99,0.00,,,0.01,meteohub,2013-01-13 22:37:00,
2013-01-13 17:43:00,47.1,46.9,30.13,SSW,195,2.0,4.0,99,0.00,,,0.01,meteohub,2013-01-13 22:43:00,
2013-01-13 17:48:00,47.1,46.9,30.12,ESE,119,2.0,4.0,99,0.00,,,0.01,meteohub,2013-01-13 22:48:00,
2013-01-13 17:53:00,47.1,46.9,30.12,SSW,193,0.0,4.0,99,0.00,,,0.01,meteohub,2013-01-13 22:53:00,
2013-01-13 17:58:00,47.1,46.9,30.12,SSW,199,2.0,4.0,99,0.00,,,0.01,meteohub,2013-01-13 22:58:00,
2013-01-13 18:03:00,47.1,46.9,30.12,South,190,0.0,4.0,99,0.00,,,0.01,meteohub,2013-01-13 23:03:00,
2013-01-13 18:08:00,47.3,47.1,30.12,SW,218,0.0,4.0,99,0.00,,,0.01,meteohub,2013-01-13 23:08:00,
2013-01-13 18:13:00,47.3,47.1,30.12,SSW,210,0.0,4.0,99,0.00,,,0.01,meteohub,2013-01-13 23:13:00,
2013-01-13 18:18:00,47.3,47.1,30.13,SSW,208,0.0,4.0,99,0.00,,,0.01,meteohub,2013-01-13 23:18:00,
2013-01-13 18:23:00,47.5,47.3,30.13,SSW,208,1.0,2.0,99,0.00,,,0.01,meteohub,2013-01-13 23:23:00,
2013-01-13 18:28:00,47.5,47.3,30.13,SSW,201,0.0,2.0,99,0.00,,,0.01,meteohub,2013-01-13 23:28:00,
2013-01-13 18:33:00,47.5,47.3,30.12,South,170,0.0,3.0,99,0.00,,,0.01,meteohub,2013-01-13 23:33:00,
2013-01-13 18:38:00,47.5,47.3,30.12,SSW,207,1.0,3.0,99,0.00,,,0.01,meteohub,2013-01-13 23:38:00,
2013-01-13 18:43:00,47.5,47.3,30.12,SSW,198,1.0,2.0,99,0.00,,,0.01,meteohub,2013-01-13 23:43:00,
2013-01-13 18:48:00,47.7,47.5,30.13,SSW,193,0.0,2.0,99,0.00,,,0.01,meteohub,2013-01-13 23:48:00,
2013-01-13 18:54:00,47.5,47.3,30.12,SW,217,0.0,2.0,99,0.00,,,0.01,meteohub,2013-01-13 23:54:00,
2013-01-13 18:59:00,47.7,47.5,30.12,SSW,207,0.0,2.0,99,0.00,,,0.01,meteohub,2013-01-13 23:59:00,
2013-01-13 19:04:00,47.7,47.5,30.13,WSW,240,0.0,2.0,99,0.00,,,0.01,meteohub,2013-01-14 00:04:00,
2013-01-13 19:09:00,47.7,47.5,30.13,SW,217,0.0,2.0,99,0.00,,,0.00,meteohub,2013-01-14 00:09:00,
2013-01-13 19:14:00,47.7,47.5,30.12,SW,233,1.0,4.0,99,0.00,,,0.00,meteohub,2013-01-14 00:14:00,
2013-01-13 19:19:00,47.7,47.5,30.12,SW,233,0.0,4.0,99,0.00,,,0.00,meteohub,2013-01-14 00:19:00,
2013-01-13 19:24:00,47.7,47.5,30.12,SSW,212,0.0,4.0,99,0.00,,,0.00,meteohub,2013-01-14 00:24:00,
2013-01-13 19:29:00,47.7,47.5,30.12,SSW,212,1.0,2.0,99,0.00,,,0.00,meteohub,2013-01-14 00:29:00,
2013-01-13 19:34:00,47.7,47.5,30.12,SSE,157,0.0,2.0,99,0.00,,,0.00,meteohub,2013-01-14 00:34:00,
2013-01-13 19:39:00,47.7,47.5,30.11,SSE,151,1.0,2.0,99,0.00,,,0.00,meteohub,2013-01-14 00:39:00,
2013-01-13 19:44:00,47.7,47.5,30.12,SSW,205,1.0,2.0,99,0.00,,,0.00,meteohub,2013-01-14 00:44:00,
2013-01-13 19:49:00,47.7,47.5,30.11,SSW,212,0.0,2.0,99,0.00,,,0.00,meteohub,2013-01-14 00:49:00,
2013-01-13 19:54:00,47.7,47.5,30.12,SW,217,1.0,2.0,99,0.00,,,0.00,meteohub,2013-01-14 00:54:00,
2013-01-13 19:59:00,47.7,47.5,30.11,SSW,193,0.0,1.0,99,0.00,,,0.00,meteohub,2013-01-14 00:59:00,
2013-01-13 20:04:00,47.7,47.5,30.11,SSW,212,0.0,1.0,99,0.00,,,0.00,meteohub,2013-01-14 01:04:00,
2013-01-13 20:09:00,47.7,47.5,30.11,SSW,212,0.0,1.0,99,0.01,,,0.01,meteohub,2013-01-14 01:09:00,
2013-01-13 20:15:00,47.7,47.5,30.11,SW,214,0.0,1.0,99,0.01,,,0.01,meteohub,2013-01-14 01:15:00,
2013-01-13 20:20:00,47.7,47.5,30.10,SW,214,0.0,0.0,99,0.01,,,0.01,meteohub,2013-01-14 01:20:00,
2013-01-13 20:25:00,47.7,47.5,30.10,SW,214,0.0,0.0,99,0.01,,,0.01,meteohub,2013-01-14 01:25:00,
2013-01-13 20:30:00,47.7,47.5,30.10,SW,214,0.0,0.0,99,0.01,,,0.01,meteohub,2013-01-14 01:30:00,
2013-01-13 20:35:00,47.7,47.5,30.10,SW,214,0.0,0.0,99,0.01,,,0.01,meteohub,2013-01-14 01:35:00,
2013-01-13 20:40:00,47.7,47.5,30.10,SW,225,0.0,0.0,99,0.01,,,0.01,meteohub,2013-01-14 01:40:00,
2013-01-13 20:45:00,47.7,47.5,30.09,SW,225,0.0,0.0,99,0.01,,,0.01,meteohub,2013-01-14 01:45:00,
2013-01-13 20:50:00,47.7,47.5,30.09,SSE,153,0.0,0.0,99,0.01,,,0.01,meteohub,2013-01-14 01:50:00,
2013-01-13 20:55:00,47.7,47.5,30.09,SSE,153,0.0,0.0,99,0.01,,,0.01,meteohub,2013-01-14 01:55:00,
2013-01-13 21:00:00,47.7,47.5,30.09,SSE,153,0.0,0.0,99,0.01,,,0.01,meteohub,2013-01-14 02:00:00,
2013-01-13 21:05:00,47.7,47.5,30.09,SSE,153,0.0,0.0,99,0.00,,,0.01,meteohub,2013-01-14 02:05:00,
2013-01-13 21:10:00,47.7,47.5,30.09,SSE,153,0.0,0.0,99,0.00,,,0.01,meteohub,2013-01-14 02:10:00,
2013-01-13 21:15:00,47.5,47.3,30.10,SSE,153,0.0,0.0,99,0.00,,,0.01,meteohub,2013-01-14 02:15:00,
2013-01-13 21:20:00,47.5,47.3,30.10,SSE,153,0.0,0.0,99,0.00,,,0.01,meteohub,2013-01-14 02:20:00,
2013-01-13 21:25:00,47.5,47.3,30.10,SSE,153,0.0,0.0,99,0.00,,,0.01,meteohub,2013-01-14 02:25:00,
2013-01-13 21:30:00,47.5,47.3,30.09,SSE,153,0.0,0.0,99,0.00,,,0.01,meteohub,2013-01-14 02:30:00,
2013-01-13 21:35:00,47.5,47.3,30.11,WSW,249,0.0,0.0,99,0.00,,,0.01,meteohub,2013-01-14 02:35:00,
2013-01-13 21:41:00,47.5,47.3,30.10,WSW,249,0.0,0.0,99,0.00,,,0.01,meteohub,2013-01-14 02:41:00,
2013-01-13 21:46:00,47.5,47.3,30.10,WSW,249,0.0,0.0,99,0.00,,,0.01,meteohub,2013-01-14 02:46:00,
2013-01-13 21:51:00,47.5,47.3,30.10,WSW,249,0.0,0.0,99,0.00,,,0.01,meteohub,2013-01-14 02:51:00,
2013-01-13 21:56:00,47.5,47.3,30.09,WSW,249,0.0,0.0,99,0.00,,,0.01,meteohub,2013-01-14 02:56:00,
2013-01-13 22:01:00,47.5,47.3,30.10,WSW,249,0.0,0.0,99,0.00,,,0.01,meteohub,2013-01-14 03:01:00,
2013-01-13 22:06:00,47.5,47.3,30.09,WSW,243,0.0,0.0,99,0.00,,,0.01,meteohub,2013-01-14 03:06:00,
2013-01-13 22:11:00,47.5,47.3,30.10,WSW,243,0.0,0.0,99,0.00,,,0.01,meteohub,2013-01-14 03:11:00,
2013-01-13 22:16:00,47.5,47.3,30.09,WSW,243,0.0,0.0,99,0.00,,,0.01,meteohub,2013-01-14 03:16:00,
2013-01-13 22:21:00,47.5,47.3,30.09,ESE,119,0.0,0.0,99,0.00,,,0.01,meteohub,2013-01-14 03:21:00,
2013-01-13 22:26:00,47.5,47.3,30.09,ESE,118,0.0,0.0,99,0.00,,,0.01,meteohub,2013-01-14 03:26:00,
2013-01-13 22:31:00,47.5,47.3,30.09,ESE,118,0.0,0.0,99,0.00,,,0.01,meteohub,2013-01-14 03:31:00,
2013-01-13 22:36:00,47.3,47.1,30.09,ESE,118,0.0,0.0,99,0.00,,,0.01,meteohub,2013-01-14 03:36:00,
2013-01-13 22:41:00,47.3,47.1,30.09,ESE,119,0.0,0.0,99,0.00,,,0.01,meteohub,2013-01-14 03:41:00,
2013-01-13 22:46:00,47.3,47.1,30.09,ESE,119,0.0,0.0,99,0.00,,,0.01,meteohub,2013-01-14 03:46:00,
2013-01-13 22:51:00,47.3,47.1,30.09,ESE,119,0.0,0.0,99,0.00,,,0.01,meteohub,2013-01-14 03:51:00,
2013-01-13 22:56:00,47.3,47.1,30.09,ESE,119,0.0,0.0,99,0.00,,,0.01,meteohub,2013-01-14 03:56:00,
2013-01-13 23:01:00,47.3,47.1,30.09,ESE,118,0.0,0.0,99,0.00,,,0.01,meteohub,2013-01-14 04:01:00,
2013-01-13 23:07:00,47.3,47.1,30.09,ESE,118,0.0,0.0,99,0.00,,,0.01,meteohub,2013-01-14 04:07:00,
2013-01-13 23:12:00,47.3,47.1,30.09,ESE,119,0.0,0.0,99,0.00,,,0.01,meteohub,2013-01-14 04:12:00,
2013-01-13 23:17:00,47.3,47.1,30.09,ESE,117,0.0,0.0,99,0.00,,,0.01,meteohub,2013-01-14 04:17:00,
2013-01-13 23:22:00,47.3,47.1,30.09,ESE,117,0.0,0.0,99,0.00,,,0.01,meteohub,2013-01-14 04:22:00,
2013-01-13 23:27:00,47.3,47.1,30.09,ESE,117,0.0,0.0,99,0.00,,,0.01,meteohub,2013-01-14 04:27:00,
2013-01-13 23:32:00,47.3,47.1,30.09,ESE,117,0.0,0.0,99,0.00,,,0.01,meteohub,2013-01-14 04:32:00,
2013-01-13 23:37:00,47.1,46.9,30.09,ESE,117,0.0,0.0,99,0.00,,,0.01,meteohub,2013-01-14 04:37:00,
2013-01-13 23:42:00,47.1,46.9,30.09,ESE,118,0.0,0.0,99,0.00,,,0.01,meteohub,2013-01-14 04:42:00,
2013-01-13 23:47:00,47.3,47.1,30.08,ESE,117,0.0,0.0,99,0.00,,,0.01,meteohub,2013-01-14 04:47:00,
2013-01-13 23:52:00,47.1,46.9,30.08,ESE,117,0.0,0.0,99,0.00,,,0.01,meteohub,2013-01-14 04:52:00,
2013-01-13 23:57:00,47.1,46.9,30.09,ESE,117,0.0,0.0,99,0.00,,,0.01,meteohub,2013-01-14 04:57:00,